World > North America > United States > Pennsylvania > Bella Vista  

Bella Vista, PA Hourly Weather Conditions

Feedback E-mail the Weather

Quick WX

WeatherWX.com

Bella Vista, PA Weather Maps

°F °C°F °C
Bella Vista Weather Map
UTC Time: 10/3/2023, 06:42
Your Time:

Bella Vista, PA Regional Weather

Expires:202310030700;;407685
ASUS41 KCTP 030610
RWRCTP

REGIONAL WEATHER ROUNDUP
NATIONAL WEATHER SERVICE STATE COLLEGE PA
200 AM EDT TUE OCT 03 2023

Note: "fair" indicates few or no clouds below 12,000 feet with no 
significant weather and/or obstructions to visibility.

* = STATION THAT DOES NOT REPORT PRECIPITATION /E.G. RAIN...SNOW...ETC/
    THUNDER OR FOG.


PAZ004>006-010>012-017>019-024>028-033>037-041-042-045-046-049>053-030700-
CENTRAL PENNSYLVANIA
  
CITY           SKY/WX    TMP DP  RH WIND       PRES   REMARKS
BRADFORD       CLEAR     54  51  90 CALM      30.25S                  
ST MARYS       MOCLDY    55  54  94 CALM      30.27S                  
DUBOIS         CLEAR     62  58  86 CALM      30.23S                  
CLEARFIELD     MOCLDY    58  56  93 CALM      30.24R FOG              
JOHNSTOWN      PTCLDY    62  56  80 CALM      30.25S                  
SOMERSET       CLEAR     54  52  94 CALM      30.26F                  
ALTOONA        CLEAR     56  53  90 CALM      30.23S                  
STATE COLLEGE  CLEAR     58  58 100 CALM      30.22S                  
REEDSVILLE     FOG       57  57 100 CALM      30.21S VSB<1/4          
WELLSBORO      FOG       55  55 100 CALM      30.23S VSB 1/4          
WILLIAMSPORT   CLEAR     59  57  93 CALM      30.19S                  
SELINSGROVE    FOG       58  56  93 CALM      30.21R VSB 1/2          
FT INDIANTOWN  CLEAR     58  56  93 CALM      30.18S                  
CAPITAL CITY   CLEAR     63  58  83 W3        30.19S                  
HARRISBURG     CLEAR     62  60  93 N3        30.18S                  
YORK           CLEAR     56  54  93 CALM      30.19F                  
$$


SKY/WX - Weather  TMP - Temperature  DP - Dew Point  RH - Humidity
WIND - Wind Direction/Speed PRES - Barometric Pressure VSB - Visibility
WCI - Wind Chill Index E13G22 Wind - East Wind 13 mph/Gusts of 22 mph

Trending Headlines

Trending Entertainment Headlines

Bella Vista Radar Loop

Use the map search tool if you want to place a location marker on the radar map...

Bella Vista Quick Facts

National Two Day Weather Forecast


E-mail the Bella Vista Weather Forecast

Voice your opinion or tell us about page issues...